Overview Statistics Trail Chart Weather Telemetry Raw packets
 

This is the latest recevied weather packets stored in our database for station/object KN6WGU. If no packets are shown the sender has not sent any weather packets the latest 10 day(s).

<< 24 25 26 27 28 29 30 >>
Time Temp. Humidity Pressure Rain* Wind** Luminosity Snow
1788448227 30.56° C 72% 1008 hPa 0 mm - 175 W/m² -
1788447921 30.56° C 72% 1008.2 hPa 0 mm - 171 W/m² -
1788447616 30.56° C 71% 1008.1 hPa 0 mm - 159 W/m² -
1788447316 30.56° C 73% 1008.1 hPa 0 mm - 169 W/m² -
1788447011 30° C 73% 1008.3 hPa 0 mm - 315 W/m² -
1788446710 30° C 73% 1008.3 hPa 0 mm - 129 W/m² -
1788446406 29.44° C 74% 1008 hPa 0 mm - 174 W/m² -
1788446102 29.44° C 74% 1008.2 hPa 0 mm - 109 W/m² -
1788445798 29.44° C 75% 1008.3 hPa 0 mm - 83 W/m² -
1788445493 28.89° C 76% 1008.3 hPa 0 mm - 96 W/m² -
1788445189 28.89° C 77% 1008.2 hPa 0 mm - 71 W/m² -
1788444884 28.89° C 77% 1008.4 hPa 0 mm - 68 W/m² -
1788444581 28.89° C 77% 1008.2 hPa 0 mm - 64 W/m² -
1788444276 28.89° C 78% 1008.1 hPa 0 mm - 61 W/m² -
1788443971 28.33° C 78% 1008.4 hPa 0 mm - 59 W/m² -
1788443667 28.33° C 78% 1007.9 hPa 0 mm - 58 W/m² -
1788443367 27.78° C 79% 1008.1 hPa 0 mm - 57 W/m² -
1788443066 27.78° C 80% 1008.3 hPa 0 mm - 56 W/m² -
1788442763 27.78° C 80% 1008.2 hPa 0 mm - 55 W/m² -
1788442460 27.78° C 80% 1008.1 hPa 0 mm - 54 W/m² -
1788442155 27.22° C 81% 1008.2 hPa 0 mm - 53 W/m² -
1788441850 27.22° C 81% 1008.2 hPa 0 mm - 53 W/m² -
1788441544 27.22° C 81% 1008.4 hPa 0 mm - 52 W/m² -
1788441239 26.67° C 81% 1008.5 hPa 0 mm - 52 W/m² -
1788440937 26.67° C 82% 1008.6 hPa 0 mm - 51 W/m² -

* Rain latest hour (hover to see other rain measurements)
** Current wind speed in m/s (hover to see current wind gust speed)